Location: Asheville, NC
(35.6000°N, 82.5500°W)
Time: 03:33:29
(UTC-04:00)

ZACube-1 - Pass Details

Date: 09 March 2018
Orbit: 584 x 668 km, 97.6° (Epoch: 17 June)

Event Time Altitude Azimuth Distance (km) Brightness Sun altitude
Rises 20:27:54 0° 193° (SSW) 2,921 ? -24.1°
Reaches altitude 10° 20:30:24 10° 206° (SSW) 2,002 ? -24.6°
Maximum altitude 20:34:04 26° 263° (W) 1,218 ? -25.3°
Drops below altitude 10° 20:37:41 10° 321° (NW) 1,970 ? -26.0°
Sets 20:40:09 0° 334° (NNW) 2,864 ? -26.5°
